Regional Weather Roundup
Issued by NWS

Home | Current Version | Previous Version | Graphics & Text | Print | Product List | Glossary On
Versions: 1 2 3 4 5 6 7 8 9 10 11 12 13 14 15 16 17 18 19 20 21 22 23 24 25 26 27 28 29 30 31 32 33 34 35 36 37 38 39 40 41 42 43 44 45 46 47 48 49 50
000
ASUS43 KBIS 181310
RWRND

NORTH DAKOTA REGIONAL WEATHER ROUNDUP
NATIONAL WEATHER SERVICE BISMARCK ND
700 AM CST MON DEC 18 2017

NOTE: "FAIR" INDICATES FEW OR NO CLOUDS BELOW 12,000 FEET WITH NO
SIGNIFICANT WEATHER AND/OR OBSTRUCTIONS TO VISIBILITY.


NDZ001>003-009>011-017-181400-
NORTHWEST NORTH DAKOTA

CITY           SKY/WX    TMP DP  RH WIND       PRES   REMARKS
WILLISTON      CLOUDY    37  23  56 W12       29.58S
MINOT          MOCLDY    38  23  55 SW14      29.53S
MINOT AFB      CLOUDY    34  24  65 SW10      29.51F
$$

NDZ018>021-031>035-040>046-181400-
SOUTHWEST NORTH DAKOTA

CITY           SKY/WX    TMP DP  RH WIND       PRES   REMARKS
BISMARCK       MOCLDY    32  24  72 SW10      29.64S
DICKINSON      CLOUDY    33  22  63 SW14      29.61R
GARRISON         N/A     35  25  66 W13       29.56S
HETTINGER ARPT CLEAR     26  19  74 W9        29.67F WCI  17
$$

NDZ004>008-012>016-024-026-027-054-181400-
NORTHEAST NORTH DAKOTA

CITY           SKY/WX    TMP DP  RH WIND       PRES   REMARKS
GRAND FORKS    CLOUDY    29  25  85 S12       29.57S WCI  19
GRND FRKS AFB  MOCLDY    31  24  75 SW9       29.56F
DEVILS LAKE    CLOUDY    31  26  82 SW8       29.55F
$$

NDZ022-023-025-028>030-036>039-047>053-181400-
SOUTHEAST NORTH DAKOTA

CITY           SKY/WX    TMP DP  RH WIND       PRES   REMARKS
FARGO          CLEAR     27  25  92 S10       29.64F WCI  17
JAMESTOWN      CLOUDY    33  25  72 W14       29.60F
$$





USA.gov is the U.S. government's official web portal to all federal, state and local government web resources and services.